Location: Unspecified
(0.0000°N, 0.0000°E)
Time: 09:08:47
(UTC+00:00)

Explorer 7 - Visible Passes

Search period start: 03 April 2020 00:00
Search period end: 13 April 2020 00:00
Orbit: 485 x 679 km, 50.3° (Epoch: 02 April)

Date Brightness Start Highest point End Pass type
(mag) Time Alt. Az. Time Alt. Az. Time Alt. Az.
03 Apr 8.5 04:56:23 10° NNW 05:00:58 40° NE 05:05:28 10° ESE visible
04 Apr 7.3 05:00:54 10° NW 05:05:48 82° NE 05:10:35 10° SE visible
05 Apr 10.0 03:29:44 13° NE 03:30:06 14° NE 03:32:29 10° E visible
05 Apr 7.4 05:06:11 12° NW 05:10:37 49° SW 05:15:14 10° SSE visible
06 Apr 9.5 03:36:25 22° E 03:36:25 22° E 03:39:01 10° ESE visible
06 Apr 8.3 05:12:52 17° W 05:15:26 25° SW 05:19:22 10° S visible
07 Apr 9.4 03:42:55 20° ESE 03:42:55 20° ESE 03:44:31 10° SE visible
07 Apr 9.0 05:19:20 13° WSW 05:20:17 13° SW 05:22:32 10° SSW visible
08 Apr 9.8 03:49:10 12° SSE 03:49:10 12° SSE 03:49:30 10° SE visible
